Location: Worth Mountain WMA
(34.9569°N, 81.4819°W)
Time: 00:33:08
(UTC-04:00)

Daily predictions for brighter satellites

Satellite Brightness Start Highest point End
(mag) Time Altitude Azimuth Time Altitude Azimuth Time Altitude Azimuth
Cosmos 1140 Rocket 4.1 00:09:16 54° N 00:09:16 54° N 00:13:24 10° NNE
Cosmos 1953 4.5 00:08:16 10° NNW 00:10:05 25° NNW 00:10:05 25° NNW
COSMOS 2406 3.6 00:21:08 59° NNW 00:21:08 59° NNW 00:26:09 10° NNE
ATLAS 3B R/B 4.5 00:19:54 10° WSW 00:26:31 31° NW 00:33:02 10° NNE
NOSS 3-2 (A) 4.4 00:31:53 38° ENE 00:31:53 38° ENE 00:36:02 10° NE
Cosmos 1607 4.3 00:40:07 61° NW 00:40:07 61° NW 00:46:00 10° NNE
Cosmos 2082 Rocket 4.4 00:47:00 14° ENE 00:47:00 14° ENE 00:48:14 10° NE
Meteor 1-24 Rocket 4.4 00:58:29 56° NNE 00:58:29 56° NNE 01:03:06 10° N
Cosmos 1943 Rocket 3.9 01:02:19 10° NW 01:05:02 23° WNW 01:05:02 23° WNW
Cosmos 1553 Rocket 4.3 01:06:32 10° N 01:11:52 62° NNE 01:11:52 62° NNE
Cosmos 2344 3.6 01:27:46 67° E 01:27:46 67° E 01:35:35 10° NE
NOSS 3-2 (C) 3.9 01:35:49 57° NNW 01:35:49 57° NNW 01:41:43 10° NNE
CENTAUR R/B 4.0 01:37:24 26° E 01:37:24 26° E 01:41:02 10° NE
CZ-2C R/B 3.6 01:30:55 10° NNE 01:34:45 45° NNE 01:34:45 45° NNE
Cosmos 2266 Rocket 4.3 01:38:31 64° NNE 01:38:31 64° NNE 01:43:56 10° N
CZ-4C R/B 3.2 01:40:01 42° NNW 01:40:01 42° NNW 01:44:47 10° NNE
Timation 2 Rocket 4.3 01:40:49 70° NNW 01:40:49 70° NNW 01:47:07 10° NNE
Cosmos 2369 4.5 01:42:04 10° NNW 01:46:12 49° N 01:46:12 49° N
Cosmos 1980 Rocket 3.9 02:08:34 10° N 02:13:17 26° ENE 02:14:53 23° E
Cosmos 2082 Rocket 3.0 02:28:50 44° NW 02:28:50 44° NW 02:33:27 10° N
Cosmos 1697 Rocket 3.0 02:28:52 10° NNW 02:33:56 62° NNE 02:33:56 62° NNE
Cosmos 1833 Rocket 3.3 02:40:04 47° NW 02:40:04 47° NW 02:44:49 10° N
Cosmos 540 Rocket 4.1 02:38:47 10° N 02:43:16 54° NE 02:43:16 54° NE
USA 215 3.1 02:43:31 10° NE 02:50:05 83° NW 02:50:36 76° WSW
ATLAS 5 CENTAUR R/B 4.2 02:50:42 13° E 02:50:42 13° E 02:52:33 10° E
Aureole 1 Rocket 3.9 02:45:39 10° NNW 02:49:39 64° N 02:49:39 64° N
CZ-2C R/B 4.4 02:55:22 31° WNW 02:55:22 31° WNW 02:58:51 10° NNW
Cosmos 1633 Rocket 4.2 02:56:59 43° NNE 02:56:59 43° NNE 02:59:59 10° N
Meteor 1-27 4.2 02:54:26 10° N 03:00:16 83° ENE 03:00:16 83° ENE
Cosmos 1726 4.3 02:58:01 10° N 02:59:41 25° N 02:59:41 25° N
Lacrosse 5 2.7 03:01:45 10° NNW 03:06:39 47° NE 03:09:23 24° ESE
SEDSat Delta rocket 4.1 03:08:53 58° SE 03:08:53 58° SE 03:14:44 10° E
SL-16 R/B 3.8 03:08:37 10° N 03:13:36 31° ENE 03:18:33 10° ESE
Cosmos 1470 Rocket 4.3 03:14:30 52° ENE 03:14:30 52° ENE 03:18:13 10° NNE
IRS-P3 4.1 03:11:41 10° N 03:16:50 74° NW 03:16:50 74° NW
Cosmos 1386 Rocket 4.3 03:16:49 73° S 03:17:31 90° W 03:23:44 10° N
Cosmos 1703 4.5 03:19:12 41° NNE 03:19:12 41° NNE 03:21:52 10° N
Cosmos 1626 3.8 03:18:58 30° ENE 03:18:58 30° ENE 03:21:36 10° NNE
Cosmos 1933 Rocket 4.1 03:19:13 55° NE 03:19:13 55° NE 03:22:55 10° NNE
Cosmos 968 Rocket 3.4 03:19:06 76° NNW 03:19:06 76° NNW 03:23:54 10° NNE
Resurs 1-4 Rocket 4.1 03:16:29 10° NE 03:20:28 21° E 03:22:45 16° SE
Cosmos 1745 Rocket 4.1 03:23:23 56° W 03:23:48 57° W 03:30:04 10° N
CENTAUR R/B 3.2 03:24:34 37° WNW 03:25:50 41° NW 03:32:10 10° NNE
Cosmos 2322 Rocket 3.2 03:21:29 10° N 03:26:49 43° ENE 03:31:45 12° SE
Cosmos 371 Rocket 3.2 03:28:02 10° NNW 03:32:54 79° ENE 03:33:07 77° ESE
Cosmos 1271 Rocket 3.6 03:31:17 10° N 03:34:24 47° NE 03:34:24 47° NE
Nadezhda 1 Rocket 3.9 03:29:07 10° NNW 03:35:12 65° W 03:35:51 61° SW
Cosmos 1709 Rocket 4.0 03:33:47 49° SSE 03:35:34 77° E 03:41:51 10° N
CZ-3 Stage 3 3.3 03:16:54 10° W 03:35:55 61° S 03:39:51 10° ESE
Lacrosse 5 rocket 3.8 03:33:21 10° NNW 03:37:00 25° NE 03:40:45 10° E
Spot 4 Rocket 4.1 03:32:43 10° NNE 03:37:51 68° ESE 03:38:40 57° SSE
Cosmos 1538 Rocket 3.9 03:33:08 10° NNW 03:38:23 89° WSW 03:39:04 69° SSE
CBERS 1 LM4 rocket 4.5 03:34:26 10° NNE 03:39:54 84° WNW 03:40:36 69° SSW
H-2A R/B 2.6 03:45:24 51° WSW 03:46:50 72° S 04:08:51 10° E
OAO 1 Rocket 4.3 03:48:09 55° W 03:49:21 85° S 03:54:44 10° E
Okean O Rocket 4.2 03:47:11 10° ENE 03:49:42 15° E 03:52:11 10° SE
BREEZE-M DEB (TANK) 4.1 03:49:53 49° WSW 03:51:30 83° NW 04:07:57 10° NE
Cosmos 1777 Rocket 4.0 03:50:55 60° WSW 03:51:38 68° WNW 03:56:54 10° NNE
AQUA 4.3 03:49:02 10° N 03:53:32 43° WNW 03:53:37 43° WNW
Cosmos 1862 Rocket 3.4 03:52:33 10° N 03:57:01 76° W 03:57:14 74° SW
Cosmos 1980 Rocket 2.9 03:52:10 10° NW 03:56:36 36° W 03:56:36 36° W
Cosmos 2360 Rocket 4.2 03:53:19 10° N 03:58:05 27° ENE 04:02:50 10° ESE
ERS-2 4.4 03:58:32 10° NNW 04:00:01 15° NW 04:00:01 15° NW
ISS 0.2 03:59:34 10° N 04:00:58 12° NNE 04:02:23 10° NE
Cosmos 773 Rocket 3.9 03:57:24 10° NNW 04:02:33 85° ENE 04:05:19 28° SSE
CZ-2D R/B 2.6 03:58:51 10° NNE 04:04:00 55° E 04:06:38 28° SSE
ADEOS 3.9 04:01:16 10° N 04:06:19 51° WNW 04:07:23 43° WSW
IRS-1D 3.6 04:03:32 10° NNE 04:08:54 82° ESE 04:11:03 37° S
ARIANE 5 R/B 2.4 04:03:50 10° NNE 04:08:57 88° WNW 04:10:38 43° SSW
Cosmos 2221 Rocket 4.3 04:05:31 10° N 04:09:55 51° E 04:13:10 17° SSE
UNK 4.1 04:11:38 16° SSE 04:15:10 62° ENE 04:19:41 10° N
GPS 2-05 Rocket1 2.8 04:16:20 68° ESE 04:16:20 68° ESE 04:19:27 10° E
Cosmos 1869 Rocket 3.6 04:17:20 36° S 04:19:02 74° E 04:23:27 10° N
ATLAS 2A CENTAUR R/B 3.9 04:16:09 29° SSW 04:20:19 48° SSE 04:59:01 10° E
Meteor 1-4 Rocket 4.0 04:21:03 10° NNW 04:23:27 26° WNW 04:23:27 26° WNW
OAO 3 Rocket 3.0 04:23:53 32° W 04:26:03 88° N 04:30:46 10° E
Cosmos 1455 3.3 04:25:56 10° NNW 04:28:43 28° WNW 04:28:43 28° WNW
Cosmos 2181 Rocket 4.2 04:25:26 10° NNW 04:31:22 51° W 04:34:46 25° SSW
ATLAS 5 CENTAUR R/B 2.0 04:32:15 34° WSW 04:34:12 58° NW 04:39:18 10° NNE
Cosmos 1833 4.3 04:34:33 29° SW 04:37:33 67° WNW 04:43:17 10° NNE
Cosmos 2112 Rocket 3.9 04:40:44 10° NNW 04:45:55 73° WSW 04:51:04 10° S
UNKNOWN OBJECT B 2.7 04:42:17 10° N 04:46:05 66° WNW 04:47:56 28° SSW
Lacrosse 5 3.1 04:45:22 10° WNW 04:48:15 21° WSW 04:48:15 21° WSW
Cosmos 1703 Rocket 3.8 04:47:38 10° NNW 04:51:48 46° W 04:54:18 21° SSW
CZ-2D R/B 3.3 04:48:16 10° N 04:52:26 82° WNW 04:55:14 20° SSW
Cosmos 1733 Rocket 4.2 04:49:12 10° SSE 04:53:16 42° E 04:57:23 10° NNE
Cosmos 1626 4.4 04:53:42 11° WNW 04:53:43 11° WNW 04:55:02 10° NW
SEDSat Delta rocket 4.1 04:49:01 15° W 04:54:40 61° S 05:01:02 10° ESE
ATLAS CENTAUR R/B 4.0 04:51:33 10° N 04:55:25 25° NE 04:59:01 10° ESE
SL-16 R/B 2.8 04:51:29 10° S 04:57:28 49° W 05:03:32 10° NNW
SL-16 R/B 2.9 04:52:40 10° NW 04:57:36 31° WSW 05:01:34 14° SSW
Meteor 2-3 Rocket 3.8 04:52:34 11° S 04:58:11 88° E 05:04:00 10° N
Cosmos 858 Rocket 4.5 04:55:20 16° SSW 04:59:34 87° WNW 05:04:52 10° NNE
Resurs 1-4 Rocket 2.7 04:55:27 10° N 05:00:23 40° WNW 05:03:50 18° SW
Cosmos 2074 Rocket 4.3 04:56:40 18° SSW 05:01:07 49° W 05:07:08 10° N
Cosmos 2184 Rocket 4.4 05:00:08 16° SSW 05:04:58 48° W 05:11:05 10° N
CZ-4B R/B 3.3 05:02:52 10° NNE 05:06:54 65° ESE 05:11:07 10° S
SME Rocket 4.0 05:01:45 10° S 05:09:28 71° WSW 05:14:32 10° NNW
Cosmos 2322 Rocket 3.4 05:06:20 10° NW 05:10:30 22° W 05:13:25 15° SW
Cosmos 2298 Rocket 4.4 05:08:21 17° SW 05:12:19 48° WNW 05:17:29 10° N
MOZ.5/SAFIR/RUBIN 5/SL-8 4.0 05:11:04 10° SSE 05:15:43 75° ENE 05:20:25 10° N
PSLV R/B 4.1 05:11:57 10° N 05:15:47 52° WNW 05:19:20 12° SSW
Lacrosse 5 rocket 1.9 05:12:11 10° NW 05:16:24 42° SW 05:20:43 10° SSE
FALCON 9 R/B 0.0 05:15:17 17° W 05:16:47 78° S 05:19:38 10° E
Cosmos 2219 Rocket 4.3 05:16:27 10° N 05:21:23 31° ENE 05:26:17 10° ESE
Okean 1-7 3.8 05:19:30 10° NNW 05:23:25 32° W 05:27:17 10° SSW
Okean O Rocket 2.2 05:22:05 10° N 05:26:13 40° WNW 05:30:19 10° SW
H-2A ROCKET BODY 2.1 05:25:48 12° WSW 05:28:17 19° SSW 05:30:01 10° SSE
Cosmos 1782 3.8 05:26:24 10° N 05:30:19 50° E 05:34:11 10° SSE
Cosmos 990 Rocket 4.0 05:29:47 10° SSW 05:34:57 76° WNW 05:40:08 10° NNE
USA 229 DEB 4.1 05:29:07 11° SW 05:35:42 51° NW 05:42:29 10° NNE
USA 229 4.1 05:29:12 10° SW 05:35:48 51° NW 05:42:36 10° NNE
GP-B 3.2 05:32:31 10° N 05:36:59 83° E 05:41:24 10° S
ISS -3.4 05:34:33 10° NW 05:37:49 90° WNW 05:41:04 10° SE
Cosmos 1674 Rocket 3.6 05:34:31 10° N 05:38:51 86° E 05:43:09 10° S
Cosmos 2227 Rocket 3.0 05:35:04 10° S 05:40:31 53° ESE 05:46:00 10° NNE
Thor Agena Rocket 3.9 05:36:47 10° S 05:41:50 46° W 05:46:55 10° NNW
Cosmos 2360 Rocket 2.8 05:37:00 10° NW 05:42:04 35° WSW 05:47:07 10° SSW
CZ-2D R/B 3.8 05:40:28 10° NNW 05:43:36 16° WNW 05:46:44 10° WSW
CZ-4B R/B 3.8 05:41:45 10° N 05:46:49 40° WNW 05:51:56 10° SW
Cosmos 292 Rocket 3.7 05:42:56 10° NNW 05:47:43 70° WSW 05:52:27 10° S
GOES 2 Rocket 4.1 05:44:12 10° SW 05:47:57 28° S 05:51:33 10° ESE
Cosmos 1340 Rocket 2.8 05:44:52 10° SSW 05:48:54 69° W 05:52:56 10° N
Okean-O 2.7 05:46:37 10° N 05:51:01 66° WNW 05:55:24 10° SSW
Cosmos 2219 4.3 05:46:24 10° WSW 05:51:20 29° WNW 05:56:19 10° N
Cosmos 2333 4.3 05:45:46 10° NNW 05:51:27 87° WSW 05:57:09 10° SSE
